Wind_Speed
42 42 42 43 43 43 42 42 41 42 43 44 43 44 44 43 43 44 45 47 47 48 49 50 50 49 48 47 45 44 43 41 40 39 37 36 34 33 31 29 28 27 25 24 23 22 21 21 20 20 20 19 19 19 18 18 18 18 17 17 17 17 17 17 17 17 17 17 17
44 44 44 44 44 43 42 42 41 42 43 44 45 46 46 45 45 45 46 48 49 50 50 50 50 49 49 48 47 45 44 43 41 40 38 37 35 34 32 30 29 28 26 25 24 23 23 22 21 21 21 20 20 19 19 19 18 18 17 17 17 17 17 17 17 17 17 17 17
45 44 44 44 44 43 43 42 42 43 44 44 45 46 47 47 46 47 48 49 50 50 50 49 50 50 50 49 48 47 45 44 43 41 40 38 36 35 33 32 30 29 27 26 25 24 23 23 22 22 21 21 20 20 20 19 19 18 18 17 17 17 17 17 17 17 17 17 17
46 45 45 45 45 46 46 45 45 45 45 45 45 46 47 47 47 48 49 50 50 49 49 50 50 50 50 50 49 48 46 45 43 42 41 39 38 36 35 33 31 30 29 27 26 25 24 23 22 22 21 21 21 20 20 20 19 19 18 17 17 17 17 17 17 17 17 17 17
47 46 46 47 48 49 49 48 48 47 47 46 45 45 46 47 47 47 48 49 49 49 50 51 51 51 51 51 50 49 47 46 44 43 42 40 39 37 36 34 32 31 30 28 27 25 24 24 23 22 21 21 20 20 20 20 20 19 18 18 17 17 17 17 17 17 17 17 16
48 48 48 48 49 49 49 48 49 48 47 46 46 46 46 46 46 47 47 48 50 51 51 51 50 51 51 51 51 50 49 47 45 44 43 41 40 39 37 35 34 32 31 29 28 26 25 24 24 23 22 21 20 20 20 19 20 19 19 18 17 17 17 17 17 17 17 17 16
50 49 48 48 49 49 48 48 48 48 47 46 46 47 48 48 48 48 50 51 51 51 50 50 50 50 51 52 52 51 50 48 47 45 44 42 41 40 38 37 35 33 32 30 29 28 27 26 25 24 23 22 21 21 20 20 20 19 19 18 18 17 17 17 17 17 17 16 16
50 50 49 49 49 49 49 48 47 47 46 46 47 49 50 51 50 50 51 51 50 50 50 50 50 51 52 53 53 52 51 50 48 47 45 44 42 41 40 38 36 35 33 32 30 29 28 27 26 25 24 24 23 22 21 21 20 20 19 19 18 18 17 16 16 16 16 16 16
48 49 49 49 49 49 49 48 48 47 47 47 48 50 51 52 52 51 50 49 51 51 52 51 51 52 53 53 54 54 53 51 50 48 47 45 44 42 41 39 38 36 35 33 32 30 29 28 27 26 25 25 24 23 23 22 21 20 20 19 19 18 17 17 16 16 16 16 16
47 48 48 48 48 49 48 48 48 48 48 48 48 50 50 50 51 51 50 50 51 52 52 52 52 52 52 54 54 54 54 52 51 50 48 47 45 44 42 41 40 38 36 35 33 32 31 30 29 27 26 26 25 24 24 23 22 21 20 20 19 19 18 18 17 16 16 16 16
49 49 49 48 48 48 47 47 46 47 47 47 47 48 48 49 50 51 51 50 50 51 52 53 53 53 53 54 54 54 54 53 52 51 50 48 47 45 44 43 41 40 38 37 35 34 32 31 30 29 28 27 26 25 25 24 23 22 21 21 20 20 19 19 18 17 17 17 16
49 50 49 49 48 48 47 46 45 45 45 45 45 46 47 48 49 50 49 49 49 51 53 53 53 53 53 53 53 54 54 54 53 52 51 50 48 47 45 44 42 41 40 38 37 35 34 33 32 31 30 28 28 27 26 25 24 24 23 22 21 20 20 20 19 18 18 17 17
48 49 48 48 47 47 46 46 45 45 44 44 45 46 46 47 49 49 48 48 50 51 52 52 53 53 53 53 53 53 54 54 53 53 52 51 49 48 46 45 44 42 41 40 38 37 36 35 33 32 31 30 30 29 28 27 26 25 25 24 23 22 21 21 20 19 19 18 18
47 47 47 47 46 46 46 46 45 44 44 45 45 46 46 46 47 48 48 49 50 51 51 51 52 52 52 53 53 53 54 53 54 53 53 52 50 49 48 46 45 44 42 41 39 38 37 36 35 34 33 32 31 31 30 29 28 27 27 26 25 24 23 22 21 21 20 19 19
44 45 46 46 46 45 45 45 44 43 43 44 45 45 45 45 46 47 48 48 49 50 50 50 50 50 51 52 52 53 53 53 54 54 53 52 51 50 49 48 46 45 43 42 41 40 39 37 36 35 34 33 32 32 31 30 29 28 28 27 26 25 24 23 23 22 21 21 20
43 44 45 45 45 45 44 44 43 42 42 43 44 44 44 44 45 46 47 47 48 48 49 49 49 49 49 50 51 51 52 52 53 53 53 52 52 51 50 49 47 46 45 43 42 41 40 38 37 36 35 34 33 33 32 32 31 30 29 28 27 26 25 24 24 23 22 22 21
42 43 44 44 44 44 44 44 42 41 41 42 43 43 43 43 44 45 46 47 47 46 47 49 49 49 48 48 49 49 50 50 52 52 52 53 52 52 51 50 49 47 46 45 43 42 41 40 38 37 36 35 34 34 33 33 32 31 30 29 28 27 25 25 24 23 23 22 22
42 43 43 43 44 44 44 44 42 41 42 42 43 44 44 44 44 45 46 47 47 47 47 48 48 48 48 48 48 48 49 50 51 52 53 53 54 53 52 51 50 48 47 46 45 44 42 41 40 39 37 36 35 35 34 34 33 32 31 30 29 27 25 24 23 23 22 22 22
42 42 42 43 44 44 45 45 44 43 43 44 44 44 44 44 45 45 45 46 47 48 48 48 47 47 48 49 49 48 49 51 52 53 53 54 54 54 53 52 50 49 48 47 46 45 43 42 41 40 39 38 37 36 35 34 34 33 32 30 29 27 25 24 23 22 22 21 21
41 42 42 44 44 45 45 45 45 44 44 44 44 45 45 45 46 46 46 46 47 48 48 48 47 47 47 48 49 48 49 50 52 52 53 53 53 54 53 52 51 50 49 47 46 45 44 43 42 41 40 39 38 37 37 36 35 33 32 31 29 27 26 24 23 22 21 21 21
41 42 43 44 44 44 44 45 45 44 43 43 44 45 46 46 46 46 47 47 47 47 47 48 48 47 47 48 48 48 49 49 50 51 52 52 53 53 53 52 51 50 49 48 47 46 45 44 43 42 42 41 40 39 38 37 36 34 33 31 30 28 26 24 23 22 21 21 20
41 42 43 43 43 44 44 44 44 43 43 43 44 45 46 46 46 47 48 48 47 46 47 47 48 48 48 49 49 49 49 48 49 50 51 51 52 52 52 51 51 50 50 49 48 47 46 45 44 43 42 41 40 39 38 37 36 35 34 32 30 28 26 25 23 22 21 20 20
40 40 41 41 42 42 43 43 42 42 42 42 43 44 45 45 46 46 46 46 46 46 46 47 48 48 49 50 50 50 49 47 48 48 49 50 51 51 51 50 50 50 50 49 49 47 46 45 44 43 43 42 40 39 38 37 36 35 34 33 31 29 27 25 23 22 21 21 20
39 39 39 39 40 41 41 41 41 41 41 42 43 44 45 45 45 45 45 45 45 46 46 47 47 47 48 48 49 49 49 48 47 47 48 49 49 49 50 49 49 50 50 50 49 48 47 46 45 44 43 41 40 39 38 37 36 36 35 34 32 30 28 26 24 23 22 21 21
38 38 38 38 39 40 40 41 41 41 42 42 43 44 44 44 44 44 45 45 46 46 46 46 46 46 46 46 47 48 48 48 48 48 48 48 48 49 49 49 49 49 49 49 48 48 47 46 45 44 43 41 40 39 38 37 36 36 35 34 33 31 29 27 25 24 23 22 22
37 37 37 38 39 39 40 41 41 42 42 42 42 43 43 44 44 44 45 45 45 46 46 45 45 45 45 45 45 46 47 47 48 48 49 49 48 48 48 48 48 48 48 48 48 47 46 46 45 43 42 41 40 38 37 37 36 36 36 35 34 32 31 29 27 25 24 23 23
36 37 37 38 38 39 40 41 41 41 41 41 41 42 43 44 43 44 44 45 45 45 45 44 44 44 44 44 45 45 46 46 46 47 48 49 49 49 48 48 48 48 48 48 47 46 45 44 43 42 41 40 39 39 38 37 37 36 36 35 34 33 32 30 29 27 25 24 24
35 36 37 37 37 38 39 39 40 40 40 40 41 42 43 43 42 42 43 43 43 43 43 43 43 43 43 44 45 46 46 46 45 46 47 48 49 49 49 49 48 48 48 47 46 45 44 43 42 41 41 40 39 39 38 38 37 37 36 36 35 34 33 31 30 28 27 26 25
35 36 36 36 36 37 37 38 39 39 40 40 41 41 41 41 41 42 42 42 42 43 43 43 43 43 43 43 44 46 46 46 45 45 46 46 47 48 49 49 48 48 47 46 45 44 43 42 42 41 40 40 40 39 39 39 38 38 37 36 35 34 33 32 30 29 28 27 26
34 35 35 35 36 36 36 37 38 38 39 39 39 40 40 40 41 41 42 42 43 43 43 43 43 42 43 44 44 45 45 45 45 45 45 45 46 46 47 48 48 47 46 45 44 43 42 41 41 40 40 40 40 40 40 39 39 38 38 37 36 35 34 32 31 29 28 28 27
33 34 34 35 35 35 36 36 37 37 37 37 38 39 40 40 41 42 42 42 43 43 43 43 43 43 43 44 44 44 44 44 44 44 45 45 46 46 46 46 46 46 45 44 43 42 41 41 40 40 39 40 40 40 40 40 39 38 38 37 36 35 34 32 31 29 29 28 28
32 33 33 34 34 34 35 35 35 36 36 37 38 39 40 41 41 42 42 42 42 42 42 42 42 42 42 42 43 43 43 43 43 44 44 45 45 45 45 45 45 45 44 42 41 40 40 39 39 39 39 39 39 40 39 39 39 38 37 36 35 34 33 31 30 29 29 29 29
32 32 33 33 33 33 33 34 35 35 36 37 38 38 39 40 39 40 40 40 40 41 41 41 42 42 41 41 42 42 42 43 43 43 43 43 43 43 43 43 43 43 42 40 39 39 38 38 37 37 37 38 38 38 38 38 37 36 36 35 34 33 31 30 29 29 28 28 28
31 32 32 32 32 32 33 34 34 35 36 36 37 38 38 38 37 38 38 38 39 40 41 42 42 42 42 42 42 42 42 42 42 41 41 41 41 41 41 41 41 41 39 37 37 36 36 36 36 35 35 36 36 37 36 36 35 34 34 33 32 30 29 28 28 28 28 28 27
31 31 31 31 31 32 32 33 34 35 35 35 36 36 37 37 38 38 38 38 39 39 39 39 40 40 40 40 41 41 41 40 40 40 39 39 39 39 39 39 39 38 36 35 34 34 34 34 34 34 34 34 35 35 34 34 33 33 32 31 30 29 28 28 27 27 27 27 26
31 31 31 30 30 31 32 33 34 35 35 35 35 35 36 36 37 37 38 38 37 37 36 36 36 37 37 37 37 38 39 39 39 38 38 38 38 38 38 37 36 35 34 33 33 33 33 33 33 33 33 34 33 33 32 32 31 31 30 29 29 28 28 27 27 27 26 25 25
30 31 30 30 30 31 32 33 34 34 33 34 34 35 35 35 35 35 36 37 36 36 35 35 35 35 35 36 36 36 37 38 38 37 37 36 36 36 35 35 34 32 32 31 31 32 32 32 32 33 33 33 32 31 31 31 30 30 29 29 28 28 28 28 27 26 26 25 23
30 30 30 30 30 31 32 32 33 32 32 32 32 33 34 34 34 34 35 36 36 36 35 34 34 35 35 35 35 35 35 35 35 35 35 34 34 34 33 32 32 31 30 30 31 31 32 32 32 33 33 32 31 31 31 31 30 29 29 29 28 28 28 27 27 26 25 24 22
29 30 30 31 31 31 31 32 31 31 31 31 32 32 33 33 33 34 34 35 36 36 35 34 34 34 34 34 34 33 32 32 32 32 32 32 32 31 31 31 30 30 29 30 30 31 32 32 32 32 31 31 30 31 31 31 30 30 29 29 29 29 28 27 26 25 24 23 22
29 30 31 32 32 32 32 31 30 31 31 32 32 32 32 33 33 33 33 33 34 34 34 34 33 33 33 33 32 32 31 30 30 30 30 30 29 29 29 29 29 30 29 30 31 31 31 32 31 31 29 29 29 30 31 31 30 30 30 30 29 29 28 27 26 25 24 23 22
30 31 31 32 33 33 32 31 30 31 32 32 32 32 32 32 32 32 32 31 32 32 33 33 33 32 32 32 31 31 31 30 29 29 28 28 27 27 27 29 30 30 30 30 31 31 31 31 30 29 28 28 29 30 31 31 31 31 30 30 30 29 28 27 26 25 24 23 23
Wind_Direction
192 192 193 193 192 192 192 192 193 193 192 190 190 190 190 189 189 190 192 192 192 193 193 193 193 192 192 191 191 190 190 189 189 188 188 187 186 185 183 182 181 179 178 176 175 173 172 171 170 168 167 165 163 161 159 158 156 156 156 155 154 154 153 153 152 151 149 148 146
193 193 193 193 192 192 192 192 192 193 193 192 192 191 190 190 190 191 192 193 193 193 194 193 193 193 192 192 192 191 191 190 190 189 189 188 187 186 185 184 183 182 180 179 177 176 174 174 173 171 169 168 167 165 162 160 159 159 158 157 157 157 157 156 156 154 153 152 151
193 193 193 193 192 191 191 191 192 193 193 193 192 192 191 191 191 192 193 194 194 194 194 194 193 193 193 193 192 192 192 191 191 190 189 189 188 188 187 186 184 184 183 182 181 179 178 177 176 175 173 171 170 168 165 163 162 161 161 160 159 159 160 160 159 158 158 157 155
193 193 193 192 192 192 192 192 193 194 193 193 193 192 192 191 192 193 194 194 194 194 194 194 194 194 194 194 193 193 193 192 192 191 190 190 189 189 189 188 187 185 185 184 183 182 181 180 179 178 177 175 173 171 169 166 165 164 163 163 162 162 163 163 163 162 161 160 159
193 193 194 194 194 194 194 194 194 194 194 193 192 192 192 192 192 193 193 194 194 195 195 195 194 194 194 194 194 194 194 193 193 192 192 191 190 190 190 189 188 187 187 186 186 185 183 182 182 181 180 178 177 175 172 170 167 166 166 165 165 165 166 166 165 165 165 163 162
193 194 195 195 195 195 195 195 195 194 193 192 192 191 191 192 192 193 193 194 195 195 195 195 195 195 195 195 195 194 194 194 194 194 193 192 191 191 191 191 190 189 188 188 187 187 186 185 184 183 183 181 180 178 176 174 171 169 168 168 168 168 169 169 168 168 168 167 165
194 194 195 195 195 195 195 195 195 194 193 192 192 192 192 192 193 193 194 195 195 195 195 195 195 195 195 195 195 195 195 195 195 195 194 194 193 192 192 192 191 191 190 189 189 189 188 188 187 185 185 184 183 181 180 179 176 173 172 171 170 170 171 172 172 171 171 170 169
195 195 195 195 195 195 195 194 194 193 192 192 193 193 193 193 194 194 194 194 194 194 195 195 196 196 196 196 196 196 196 196 196 196 196 195 194 193 193 193 193 192 192 191 190 190 190 191 189 188 187 186 185 184 183 182 180 178 176 175 173 173 174 174 175 174 174 174 172
194 195 195 195 195 195 195 194 194 193 193 193 194 195 195 195 194 194 194 194 195 195 195 195 196 196 197 197 196 196 196 196 196 196 196 196 195 195 194 194 194 194 193 193 192 192 192 192 192 191 190 189 187 186 185 185 183 182 180 179 177 176 176 177 177 178 177 177 176
194 194 195 195 195 195 194 194 194 194 194 195 195 195 195 195 194 194 194 194 195 195 195 196 196 197 197 197 197 197 197 197 197 197 197 197 196 196 195 195 195 195 194 194 194 194 194 194 194 194 193 192 190 189 188 187 186 185 184 183 181 179 179 179 180 180 180 180 180
194 194 194 194 194 194 194 194 194 194 195 195 195 195 195 194 195 194 195 195 195 195 196 196 196 197 197 198 198 198 197 197 197 198 198 198 197 197 197 196 196 196 195 195 195 195 195 196 196 195 195 194 193 191 190 189 189 188 187 186 185 184 182 182 182 183 183 183 183
194 194 194 194 194 193 193 193 193 194 194 195 194 194 194 194 195 195 194 194 194 195 196 197 197 197 198 198 198 198 198 198 198 198 199 199 198 198 198 198 197 197 197 196 196 196 196 197 197 197 196 196 195 194 193 192 191 190 190 189 189 188 187 185 185 185 185 185 185
193 193 193 193 193 192 192 192 193 193 193 194 194 194 194 195 195 194 194 194 195 196 196 197 198 198 198 198 198 198 198 198 199 199 200 200 200 199 199 199 199 198 198 198 197 197 197 198 199 199 198 197 196 196 195 194 193 192 192 192 191 191 191 189 188 187 187 187 188
193 192 192 192 192 191 191 191 192 192 193 193 194 194 194 194 194 194 194 195 196 196 196 196 197 198 198 198 198 198 198 198 199 200 200 201 201 200 200 200 200 200 199 199 199 199 199 200 200 200 200 199 198 197 197 197 196 195 195 194 194 194 193 192 191 189 189 189 189
192 192 192 191 190 190 191 191 192 192 193 193 194 194 193 193 194 194 195 195 196 196 196 195 196 197 198 199 199 199 198 198 199 200 201 201 201 201 201 201 201 201 201 200 200 201 201 202 202 202 202 201 200 199 199 199 198 198 198 198 197 196 195 194 193 192 192 191 191
191 191 191 190 190 190 190 191 192 192 192 193 193 193 193 193 193 194 194 195 195 195 195 195 195 196 198 199 199 199 198 198 199 200 200 201 202 202 202 202 202 202 202 202 202 202 203 204 204 204 203 203 202 201 200 200 200 200 200 200 200 199 197 196 195 195 194 195 194
191 191 190 190 190 190 190 191 192 192 192 192 193 192 192 192 193 193 194 194 194 194 194 195 195 196 196 197 198 199 198 198 199 199 200 201 202 202 203 203 203 203 203 203 203 203 203 204 205 205 205 205 204 204 203 202 202 202 202 202 202 201 200 199 198 197 197 197 197
190 190 190 190 190 190 191 191 192 192 192 192 192 192 192 192 192 193 194 194 194 194 194 195 195 195 196 196 197 198 198 198 199 200 201 202 203 203 203 204 204 204 204 204 204 204 204 204 205 206 206 207 206 206 205 204 204 204 204 203 203 203 202 201 200 200 199 199 199
190 190 190 190 191 191 192 192 192 192 192 192 192 192 192 192 193 193 193 194 195 195 195 194 194 195 196 196 197 197 198 199 200 200 201 202 204 204 204 205 205 205 205 205 205 205 205 205 205 206 206 207 207 207 207 206 206 206 205 205 205 204 204 203 203 203 202 202 201
190 190 190 191 192 192 192 192 193 193 192 192 192 192 192 193 193 193 192 193 195 195 195 194 194 194 196 197 197 197 198 200 201 201 202 203 204 205 205 205 205 206 206 206 206 206 206 206 206 206 206 207 207 207 207 207 207 207 206 206 206 205 205 204 204 204 204 204 203
191 191 191 192 192 192 192 193 193 193 192 192 192 192 192 192 193 193 193 194 194 194 194 194 194 194 195 196 196 197 198 200 201 201 202 203 204 205 205 206 206 206 206 207 207 207 207 207 207 207 207 207 207 207 207 207 207 207 207 206 206 206 205 205 205 205 204 204 203
192 192 192 192 192 192 193 193 193 192 192 192 192 192 192 192 193 194 194 194 193 193 194 194 195 195 196 196 197 197 198 199 200 201 202 203 204 205 206 206 206 206 207 207 207 207 207 208 208 208 208 208 208 208 208 207 207 207 206 206 206 205 205 204 204 204 204 203 203
192 192 192 192 192 192 192 192 192 192 191 192 192 192 192 192 193 193 193 193 193 193 194 195 196 196 197 198 198 198 198 199 200 201 202 204 204 205 205 206 206 207 207 208 208 208 208 208 208 208 208 208 208 208 208 208 208 207 206 206 205 204 203 203 203 202 202 201 201
192 191 191 191 191 191 191 191 191 191 191 191 191 191 191 191 192 192 192 192 192 193 194 195 196 197 198 198 198 198 198 198 199 200 202 203 204 205 205 206 207 207 208 208 208 208 208 208 208 208 208 209 208 208 209 209 209 208 207 206 205 203 202 201 200 200 199 199 198
190 190 190 190 190 190 190 190 190 190 191 191 191 190 190 190 190 190 190 191 192 193 194 194 195 196 196 197 197 198 198 199 199 200 201 203 204 205 206 206 207 208 209 209 209 209 209 209 209 208 208 209 209 209 209 209 209 209 209 207 205 202 200 199 198 198 197 197 196
189 188 189 189 189 189 189 190 190 190 190 190 190 189 189 189 190 190 190 190 192 193 193 194 194 194 195 195 196 197 198 199 200 201 201 202 203 205 206 206 207 208 209 209 210 210 210 211 210 210 209 209 209 208 208 209 210 210 210 208 206 203 200 197 196 196 195 195 194
187 187 188 188 188 188 189 189 189 189 189 189 188 188 188 189 189 189 189 190 191 192 192 192 193 193 194 195 195 196 197 198 199 201 202 202 203 204 206 207 208 208 209 210 210 210 211 211 211 211 211 210 210 209 208 209 209 210 210 209 207 204 201 198 196 195 194 193 193
186 186 187 186 186 187 188 188 188 188 188 187 187 187 187 187 187 187 188 189 189 189 190 191 192 193 193 194 195 196 197 198 199 200 202 203 204 205 206 207 208 209 210 210 210 210 210 210 211 211 212 211 211 211 210 209 209 209 209 208 207 205 203 200 198 196 194 193 192
186 185 185 184 185 186 186 186 186 187 187 187 186 186 186 185 186 186 186 187 187 187 188 189 191 191 192 193 194 196 197 197 198 199 201 202 203 205 206 207 209 210 211 210 210 210 209 209 210 210 211 211 211 211 210 210 209 208 208 207 206 205 203 201 200 198 196 194 192
184 184 183 183 184 184 184 185 185 185 185 185 184 184 183 184 184 185 185 185 186 187 188 189 189 190 191 193 194 195 195 196 198 199 200 201 202 204 206 207 209 210 210 210 209 209 208 208 208 209 210 210 210 210 210 210 209 208 207 206 205 204 203 201 200 199 197 195 193
183 183 182 183 183 183 183 184 184 184 183 182 182 182 182 182 183 184 185 186 187 188 188 189 189 190 192 193 194 194 194 195 197 198 200 201 202 203 205 207 208 209 209 208 208 207 206 206 206 207 208 209 209 210 210 210 209 208 207 206 205 203 202 202 201 200 199 197 194
182 182 181 181 182 182 182 182 181 181 181 180 180 181 181 182 184 185 185 186 186 186 186 187 188 189 190 192 192 193 194 195 196 198 200 201 202 203 204 206 207 208 207 206 205 205 204 204 204 205 206 207 208 209 210 210 209 209 207 206 204 203 203 202 202 201 200 199 197
180 180 180 180 180 180 179 179 179 179 179 179 179 180 181 182 183 183 183 184 184 184 185 186 187 188 189 190 190 191 193 194 196 198 199 201 201 202 203 204 206 206 205 203 202 201 201 201 201 202 204 206 207 208 209 209 209 208 207 205 204 204 203 203 203 203 202 200 199
178 178 178 178 178 177 176 176 177 177 177 177 178 179 179 179 179 180 181 182 183 185 186 187 188 189 190 190 190 190 191 193 195 196 198 199 200 201 201 203 204 204 202 199 198 198 197 197 198 199 202 204 206 207 207 208 207 206 205 203 203 203 203 204 204 203 202 200 199
175 176 176 175 175 174 173 173 174 174 174 174 175 177 178 178 178 179 180 181 182 183 184 185 187 188 189 189 190 190 190 191 192 194 196 197 198 199 200 201 202 201 198 195 194 194 194 194 195 196 199 202 204 205 206 206 205 203 202 201 200 200 201 201 201 201 200 199 198
174 174 173 172 171 171 171 171 171 171 171 172 173 174 175 176 178 178 179 179 179 179 179 181 182 183 184 185 187 188 190 190 191 192 194 196 197 197 198 199 199 197 194 192 191 191 191 190 192 194 198 201 202 203 202 202 201 200 199 198 198 197 197 197 197 196 196 196 196
172 171 170 168 167 167 168 168 168 168 169 170 171 171 172 173 174 175 177 177 175 175 176 178 179 181 182 183 185 187 190 191 191 191 192 195 196 196 197 197 196 193 190 189 188 188 188 188 190 193 197 199 199 199 198 197 197 196 196 195 194 194 193 192 192 192 192 192 193
169 168 166 164 164 164 165 165 166 166 166 167 168 169 170 170 170 172 174 175 174 173 174 176 178 180 182 184 185 187 189 191 192 192 192 193 195 196 196 195 192 189 187 186 185 185 184 185 189 194 197 198 196 194 193 192 192 192 192 191 190 189 188 188 188 189 189 190 191
164 164 163 162 161 162 163 163 164 164 164 164 165 166 167 168 169 171 173 175 176 175 175 175 177 179 182 183 184 185 187 190 193 194 194 194 196 197 196 192 188 184 181 181 181 181 182 184 189 194 197 196 194 191 189 188 188 188 187 186 185 184 184 185 185 187 188 189 191
161 162 162 162 162 162 162 162 162 164 164 164 164 165 166 167 168 169 171 174 176 176 176 176 177 178 180 182 183 183 185 188 191 194 195 195 195 195 193 188 181 176 175 176 176 177 180 184 189 192 194 193 191 189 186 185 184 183 183 182 181 181 181 182 184 185 187 189 191
160 161 161 162 162 162 161 161 162 163 165 165 165 165 166 167 167 167 168 170 172 173 174 175 175 176 178 180 181 181 181 183 186 190 192 192 190 188 185 179 173 169 169 171 173 175 179 183 188 190 191 190 188 186 184 183 181 180 180 180 180 180 180 181 184 186 188 191 193
Height
765 767 769 771 773 776 778 780 782 784 786 787 789 791 793 796 798 800 802 804 805 808 810 812 814 817 820 822 824 826 828 830 833 835 836 838 840 841 843 844 845 846 847 848 849 850 851 852 853 854 855 855 856 857 857 858 859 860 860 861 862 862 863 864 865 865 866 866 867
762 764 766 768 770 773 776 778 780 782 784 785 787 788 790 793 795 797 799 801 803 805 808 810 813 815 818 820 822 825 827 829 831 833 835 837 839 840 841 843 844 845 846 847 848 849 850 851 852 853 854 855 855 856 857 858 858 859 860 861 861 862 863 864 864 865 866 866 867
759 761 763 765 768 771 773 775 777 779 781 783 785 787 789 790 793 795 796 799 801 804 806 809 811 814 816 818 820 823 825 827 829 831 833 835 837 839 840 841 843 844 845 846 847 848 849 850 851 852 853 854 855 855 856 857 858 859 860 860 861 862 863 863 864 865 865 866 867
755 758 760 762 764 766 769 771 773 775 778 780 783 785 787 789 790 792 795 797 800 803 805 807 809 812 814 816 819 821 823 825 828 830 831 834 835 837 839 840 841 843 844 845 846 847 848 849 850 851 852 853 854 855 855 856 857 858 859 860 860 861 862 863 864 864 865 866 866
753 754 756 758 760 762 765 767 770 773 775 778 780 783 785 787 789 791 793 796 798 800 802 805 807 810 812 814 817 819 821 824 826 828 830 832 834 835 837 839 840 841 842 844 845 846 847 848 850 850 851 852 853 854 855 856 856 857 858 859 860 861 862 862 863 864 865 865 866
749 751 753 755 757 760 763 765 768 770 773 775 778 780 782 785 787 789 791 793 795 798 800 803 805 808 810 812 815 817 820 822 824 826 828 830 832 834 835 837 839 840 841 842 844 845 846 847 849 850 851 852 853 854 855 855 856 857 858 859 860 860 861 862 863 864 864 865 866
745 748 750 753 755 758 761 763 766 768 770 773 775 777 779 781 784 785 788 790 793 796 799 801 804 806 808 810 813 815 818 820 822 825 827 829 830 832 834 835 837 839 840 841 843 844 845 846 847 849 850 851 852 853 854 855 855 856 857 858 859 860 860 861 862 863 864 865 865
743 745 747 750 752 755 758 761 764 766 769 770 772 774 775 778 780 783 785 789 791 794 796 799 801 803 805 808 810 813 815 818 820 822 825 827 829 830 832 834 835 837 839 840 841 842 844 845 846 847 848 850 850 852 853 854 855 855 856 857 858 859 860 861 861 862 863 864 865
742 744 745 748 750 753 755 758 760 763 765 767 769 771 773 776 778 781 784 786 789 791 793 796 799 801 803 805 808 810 813 815 818 820 822 825 826 828 830 832 834 835 837 838 840 841 842 844 845 846 847 848 849 850 851 853 854 855 855 856 857 858 859 860 861 862 863 864 864
739 741 744 746 749 751 754 756 758 760 762 765 767 770 772 775 777 779 781 784 786 789 791 794 796 799 801 804 806 808 810 813 815 818 820 822 824 826 828 830 831 833 835 837 838 840 841 842 843 845 846 847 848 849 850 851 853 854 855 855 856 857 858 859 860 861 862 863 864
734 737 740 743 746 749 752 755 757 759 761 763 766 768 771 773 775 777 780 782 785 787 789 791 794 796 799 801 804 806 809 811 813 815 818 820 822 824 826 827 829 831 833 835 836 838 839 840 842 843 845 846 847 848 850 850 851 853 854 855 855 856 857 858 859 860 861 862 863
731 734 737 740 743 746 750 752 755 757 760 762 764 767 769 771 773 775 778 780 782 784 786 789 791 794 796 799 801 804 806 809 811 814 815 818 820 822 824 825 827 829 831 833 834 836 837 839 840 841 843 845 846 847 848 849 850 851 852 854 855 855 856 857 858 859 860 861 862
730 732 735 738 741 744 747 750 752 755 757 760 762 765 767 769 771 774 776 778 780 782 785 787 790 792 794 797 799 802 804 807 809 811 814 815 818 820 822 824 825 827 829 831 832 834 835 837 838 840 841 843 844 845 847 848 849 850 851 852 853 854 855 856 857 858 859 860 861
728 731 733 736 739 742 745 747 750 752 755 757 760 762 765 767 770 772 774 776 778 780 783 785 788 790 793 795 797 799 802 805 807 809 811 814 815 818 820 821 823 825 827 829 830 832 833 835 836 838 839 841 842 844 845 846 847 848 849 850 851 852 854 855 856 857 858 859 860
727 729 731 734 737 739 742 745 747 750 752 755 757 760 763 765 768 770 772 774 776 778 781 784 786 789 791 793 795 797 800 802 805 807 809 811 814 815 817 819 821 823 825 827 829 830 832 833 835 836 838 839 840 842 843 845 846 847 848 849 850 851 852 854 855 856 857 858 859
725 727 730 732 734 737 739 742 744 747 750 752 755 758 760 763 765 768 770 772 774 777 779 781 784 786 789 791 794 796 798 800 802 805 807 809 811 813 815 817 819 821 823 825 827 828 830 831 833 835 836 838 839 840 842 843 845 846 847 848 849 850 851 852 853 855 855 857 858
722 725 727 729 731 734 736 739 742 745 747 750 752 755 758 760 763 765 767 770 772 775 777 779 781 784 787 790 792 794 796 798 800 802 804 806 808 810 813 815 817 819 821 823 825 826 828 830 831 833 835 836 838 839 840 842 843 845 846 847 849 850 851 852 853 854 855 856 857
720 722 724 726 729 731 733 736 739 741 744 747 750 752 755 757 760 762 765 767 769 771 774 776 779 782 784 786 789 791 794 796 797 800 801 804 805 808 810 812 814 816 819 820 822 824 826 828 830 832 833 835 837 838 840 841 842 844 845 846 848 849 850 851 852 853 854 855 856
717 719 722 724 726 728 730 733 736 738 741 744 747 749 752 754 756 759 762 765 766 769 771 774 777 779 781 784 786 789 791 793 795 797 799 801 804 806 808 810 812 815 817 819 820 822 824 826 828 830 831 833 835 837 838 840 841 843 844 846 847 849 850 851 852 853 854 855 855
714 716 718 720 723 726 728 731 733 736 739 741 744 747 749 751 754 756 759 761 764 766 769 771 774 777 779 781 784 786 789 790 793 795 798 800 802 804 806 808 810 813 815 817 819 820 822 824 826 828 830 831 833 835 837 839 840 842 844 845 846 848 849 850 851 852 853 854 855
711 713 715 718 720 723 726 729 731 734 737 740 742 744 746 749 751 754 756 758 761 764 767 769 771 774 776 779 781 784 786 789 791 794 796 798 800 802 804 806 809 811 813 815 817 819 820 822 824 826 828 830 831 833 835 837 839 840 842 844 845 847 848 850 850 851 852 854 854
709 711 713 716 719 721 724 727 730 733 735 737 740 742 744 747 749 751 754 757 760 762 765 767 769 771 774 776 779 781 784 787 790 792 794 796 798 800 802 805 807 809 811 813 815 817 819 820 822 824 826 828 830 832 833 835 837 839 841 843 845 846 847 849 850 851 852 853 854
707 710 713 715 718 720 723 726 728 731 733 735 738 740 742 745 747 750 753 755 758 760 763 765 767 770 771 774 776 779 782 785 788 790 792 794 796 799 801 803 805 807 809 810 812 815 816 819 821 823 825 826 828 830 832 834 836 838 840 841 843 845 846 848 849 850 851 852 853
705 709 711 714 717 719 722 724 727 729 731 734 736 738 740 743 745 749 751 754 756 758 761 763 766 768 770 773 775 778 780 783 785 788 790 792 795 796 799 801 803 805 806 808 810 812 814 816 818 820 823 825 827 829 831 833 835 836 838 840 841 843 845 846 847 849 850 851 852
704 707 710 713 715 718 720 722 725 727 729 731 733 736 739 741 744 746 749 751 754 756 759 761 764 767 770 772 774 776 778 780 782 785 788 790 792 794 796 799 800 802 804 806 808 810 812 814 816 818 820 823 825 827 830 831 833 835 836 838 840 842 843 845 846 847 849 850 851
703 706 708 710 713 715 718 720 722 724 727 729 732 734 737 739 742 744 747 749 752 755 757 760 763 765 768 770 772 775 777 779 780 782 785 787 790 792 794 796 798 800 802 804 806 809 811 813 815 817 819 821 824 826 828 830 832 833 835 837 839 840 841 843 844 846 847 849 850
702 704 706 708 711 713 715 718 720 723 725 728 730 732 735 737 740 742 745 747 750 753 756 758 761 763 766 768 770 773 775 777 779 781 782 784 786 789 791 794 796 798 800 802 805 807 810 812 814 816 818 820 822 824 826 828 830 832 834 835 837 838 840 841 842 844 845 847 849
700 702 705 707 710 712 714 716 719 722 724 726 728 730 733 735 738 741 744 746 749 751 754 757 759 761 764 766 768 770 772 775 777 779 781 782 784 786 789 791 793 795 798 800 803 805 808 810 813 815 816 819 820 822 824 826 828 830 832 834 835 837 838 840 841 842 844 846 847
699 701 703 706 708 710 713 715 718 720 722 724 726 729 732 734 737 739 742 745 747 750 752 754 757 760 762 764 766 768 770 773 775 777 779 781 783 785 787 789 791 794 796 799 802 804 806 809 811 813 815 817 819 820 822 824 826 828 830 832 833 835 837 838 840 841 843 844 846
698 700 702 705 707 710 712 714 716 718 721 723 726 728 730 733 735 738 740 742 745 746 749 751 754 757 759 761 764 766 769 771 773 775 777 779 781 783 785 787 790 792 795 798 800 803 805 807 809 811 813 815 817 819 820 822 824 826 828 830 831 833 835 837 838 840 841 843 844
698 700 702 704 706 708 710 713 715 718 720 722 725 727 729 731 733 735 738 740 742 745 747 750 752 755 757 760 762 765 767 769 771 773 775 777 779 781 784 786 788 791 794 796 799 801 803 805 808 810 811 813 815 817 818 820 822 824 826 828 830 832 834 835 837 839 840 841 843
697 699 701 704 705 708 710 712 715 717 719 721 723 725 727 730 731 734 736 739 741 744 746 749 751 753 756 759 761 763 765 767 769 771 773 775 778 780 782 785 787 789 792 795 797 800 802 804 806 808 810 811 813 815 817 819 821 823 825 826 829 830 832 834 836 838 839 840 841
697 699 701 703 705 707 710 712 714 716 718 720 722 724 726 729 731 734 736 738 740 742 744 747 749 752 754 757 759 761 764 766 767 770 772 774 776 779 781 783 785 788 791 794 796 798 800 803 805 806 808 810 812 814 816 818 820 822 824 826 828 830 832 833 835 836 838 839 841
696 698 700 703 705 707 709 711 713 715 717 719 721 723 725 728 730 733 735 737 739 741 743 745 747 750 752 754 757 760 762 764 766 769 771 773 775 778 780 782 784 787 790 793 795 797 799 801 804 805 807 809 810 812 815 817 819 821 823 825 828 830 831 833 834 836 837 839 840
695 698 700 702 704 706 708 710 712 714 716 718 720 722 725 727 729 731 733 735 738 740 743 745 747 749 752 754 756 758 761 763 766 768 770 772 775 777 779 781 783 786 789 792 794 796 798 800 802 804 805 807 809 811 814 816 818 820 823 825 827 829 830 832 834 835 837 838 840
695 698 700 702 704 706 707 709 711 713 715 717 719 721 724 726 728 730 732 734 737 740 742 745 747 750 752 754 756 759 760 762 764 767 769 771 774 776 778 780 783 786 789 791 793 795 798 800 801 803 804 806 808 810 813 815 817 820 822 824 826 828 830 831 833 835 836 838 839
695 697 699 701 703 705 707 709 710 713 715 716 718 720 723 725 727 730 731 734 736 739 741 743 746 748 750 753 755 758 760 762 764 766 768 771 773 775 778 780 783 786 788 790 793 795 797 799 800 801 802 805 807 810 812 814 817 819 821 823 825 827 829 830 832 834 835 837 838
695 697 699 701 703 705 707 709 710 712 715 716 718 720 722 724 726 729 731 733 735 737 740 743 745 747 750 752 755 757 760 762 764 766 768 770 773 775 777 780 783 785 788 790 792 794 796 797 798 800 801 803 806 808 811 813 815 818 820 822 824 826 828 830 831 833 835 836 838
695 697 698 700 702 705 707 709 711 713 715 716 719 720 722 724 726 728 730 733 735 737 739 742 745 747 750 752 755 757 760 763 765 766 768 770 773 775 777 780 782 785 787 789 791 793 795 796 797 799 800 803 805 807 810 812 814 816 819 821 823 825 827 829 830 832 834 835 837
695 696 698 700 702 705 707 709 711 713 715 716 718 720 722 724 726 729 731 734 736 738 740 742 745 747 750 752 755 757 760 763 765 767 769 771 773 775 777 780 782 785 787 789 791 792 794 795 796 798 800 803 805 807 809 811 813 815 818 820 822 824 826 828 830 831 833 834 836
695 697 699 701 703 705 707 709 711 713 715 716 718 720 723 725 727 730 732 735 737 739 741 743 745 748 750 752 755 757 760 762 765 767 769 771 773 775 778 780 782 784 786 789 790 792 793 795 796 798 800 802 804 806 808 810 812 815 817 819 821 823 825 827 829 830 832 833 835